Time,TemperatureF,DewpointF,PressureIn,WindDirection,WindDirectionDegrees,WindSpeedMPH,WindSpeedGustMPH,Humidity,HourlyPrecipIn,Conditions,Clouds,dailyrainin,SoftwareType,DateUTC
2013-03-26 00:00:00,37.7,25.8,29.94,SW,222,0.0,0.0,62,0.00,CLR,,0.02,WeatherDisplay:10.37,2013-03-26 04:00:00,
2013-03-26 00:05:00,37.5,26.0,29.93,South,179,1.2,0.0,63,0.00,RA,,0.00,WeatherDisplay:10.37,2013-03-26 04:05:00,
2013-03-26 00:10:00,37.5,25.7,29.93,WSW,237,4.6,4.6,62,0.00,CLR,,0.00,WeatherDisplay:10.37,2013-03-26 04:10:00,
2013-03-26 00:15:00,37.3,25.5,29.93,SW,219,0.0,0.0,62,0.00,CLR,,0.00,WeatherDisplay:10.37,2013-03-26 04:15:00,
2013-03-26 00:20:00,37.1,25.7,29.93,SW,223,0.0,0.0,63,0.00,CLR,,0.00,WeatherDisplay:10.37,2013-03-26 04:20:00,
2013-03-26 00:25:00,37.1,25.7,29.93,SW,223,0.0,0.0,63,0.00,CLR,,0.00,WeatherDisplay:10.37,2013-03-26 04:25:00,
2013-03-26 00:30:00,37.2,25.8,29.93,SW,230,0.0,0.0,63,0.00,CLR,,0.00,WeatherDisplay:10.37,2013-03-26 04:30:00,
2013-03-26 00:35:00,37.1,25.7,29.93,WSW,246,0.0,0.0,63,0.00,CLR,,0.00,WeatherDisplay:10.37,2013-03-26 04:35:00,
2013-03-26 00:40:00,37.6,28.3,29.93,SW,233,0.0,0.0,69,0.00,CLR,,0.00,WeatherDisplay:10.37,2013-03-26 04:40:00,
2013-03-26 00:45:00,38.0,28.0,29.93,SW,223,1.5,1.5,67,0.00,CLR,,0.00,WeatherDisplay:10.37,2013-03-26 04:45:00,
2013-03-26 00:50:00,38.1,27.0,29.94,SW,223,0.0,0.0,64,0.00,CLR,,0.00,WeatherDisplay:10.37,2013-03-26 04:50:00,
2013-03-26 00:55:00,37.8,26.3,29.94,SW,216,0.0,0.0,63,0.00,CLR,,0.00,WeatherDisplay:10.37,2013-03-26 04:55:00,
2013-03-26 01:00:00,37.5,26.0,29.95,SW,216,0.0,0.0,63,0.00,CLR,,0.00,WeatherDisplay:10.37,2013-03-26 05:00:00,
2013-03-26 01:05:00,37.2,25.8,29.95,SW,216,0.0,0.0,63,0.00,CLR,,0.00,WeatherDisplay:10.37,2013-03-26 05:05:00,
2013-03-26 01:10:00,36.9,25.5,29.94,WSW,256,0.0,0.0,63,0.00,CLR,,0.00,WeatherDisplay:10.37,2013-03-26 05:10:00,
2013-03-26 01:15:00,36.7,25.7,29.95,SW,227,0.0,0.0,64,0.00,CLR,,0.00,WeatherDisplay:10.37,2013-03-26 05:15:00,
2013-03-26 01:20:00,36.4,25.7,29.95,SW,227,0.0,0.0,65,0.00,CLR,,0.00,WeatherDisplay:10.37,2013-03-26 05:20:00,
2013-03-26 01:25:00,36.0,25.4,29.95,SW,227,0.0,0.0,65,0.00,CLR,,0.00,WeatherDisplay:10.37,2013-03-26 05:25:00,
2013-03-26 01:30:00,35.7,25.1,29.95,SW,227,0.0,0.0,65,0.00,CLR,,0.00,WeatherDisplay:10.37,2013-03-26 05:30:00,
2013-03-26 01:35:00,35.5,24.9,29.95,WSW,244,2.3,2.3,65,0.00,CLR,,0.00,WeatherDisplay:10.37,2013-03-26 05:35:00,
2013-03-26 01:40:00,35.5,24.9,29.95,WSW,244,0.0,0.0,65,0.00,CLR,,0.00,WeatherDisplay:10.37,2013-03-26 05:40:00,
2013-03-26 01:45:00,35.5,26.0,29.95,WSW,244,0.0,0.0,68,0.00,CLR,,0.00,WeatherDisplay:10.37,2013-03-26 05:45:00,
2013-03-26 01:50:00,36.1,28.6,29.95,WSW,244,0.0,0.0,74,0.00,CLR,,0.00,WeatherDisplay:10.37,2013-03-26 05:50:00,
2013-03-26 01:55:00,36.2,26.6,29.95,WSW,244,0.0,0.0,68,0.00,CLR,,0.00,WeatherDisplay:10.37,2013-03-26 05:55:00,
2013-03-26 02:00:00,35.6,26.1,29.95,WSW,244,0.0,0.0,68,0.00,CLR,,0.00,WeatherDisplay:10.37,2013-03-26 06:00:00,
2013-03-26 02:05:00,35.2,25.7,29.95,WSW,244,0.0,0.0,68,0.00,CLR,,0.00,WeatherDisplay:10.37,2013-03-26 06:05:00,
2013-03-26 02:10:00,34.8,25.7,29.95,WSW,244,0.0,0.0,69,0.00,CLR,,0.00,WeatherDisplay:10.37,2013-03-26 06:10:00,
2013-03-26 02:15:00,34.6,25.5,29.95,WSW,244,0.0,0.0,69,0.00,CLR,,0.00,WeatherDisplay:10.37,2013-03-26 06:15:00,
2013-03-26 02:20:00,34.6,25.5,29.94,South,178,0.0,0.0,69,0.00,CLR,,0.00,WeatherDisplay:10.37,2013-03-26 06:20:00,
2013-03-26 02:25:00,34.7,25.6,29.95,SW,222,0.0,0.0,69,0.00,CLR,,0.00,WeatherDisplay:10.37,2013-03-26 06:25:00,
2013-03-26 02:30:00,34.6,25.5,29.95,WSW,237,0.7,0.7,69,0.00,CLR,,0.00,WeatherDisplay:10.37,2013-03-26 06:30:00,
2013-03-26 02:35:00,34.5,25.0,29.95,WSW,237,0.0,0.0,68,0.00,CLR,,0.00,WeatherDisplay:10.37,2013-03-26 06:35:00,
2013-03-26 02:40:00,34.3,25.2,29.95,SW,224,0.0,0.0,69,0.00,CLR,,0.00,WeatherDisplay:10.37,2013-03-26 06:40:00,
2013-03-26 02:45:00,34.3,25.2,29.95,SW,224,0.0,0.0,69,0.00,CLR,,0.00,WeatherDisplay:10.37,2013-03-26 06:45:00,
2013-03-26 02:51:00,34.1,26.0,29.95,WSW,243,0.0,0.0,72,0.00,CLR,,0.00,WeatherDisplay:10.37,2013-03-26 06:51:00,
2013-03-26 02:56:00,34.7,28.2,29.95,WSW,247,0.0,0.0,77,0.00,CLR,,0.00,WeatherDisplay:10.37,2013-03-26 06:56:00,
2013-03-26 03:01:00,35.1,26.6,29.95,WSW,247,0.0,0.0,71,0.00,CLR,,0.00,WeatherDisplay:10.37,2013-03-26 07:01:00,
2013-03-26 03:06:00,35.0,26.2,29.95,WSW,247,0.0,0.0,70,0.00,CLR,,0.00,WeatherDisplay:10.37,2013-03-26 07:06:00,
2013-03-26 03:11:00,35.0,26.2,29.94,South,175,0.0,0.0,70,0.00,CLR,,0.00,WeatherDisplay:10.37,2013-03-26 07:11:00,
2013-03-26 07:08:00,30.4,29.9,29.94,North,0,0.0,0.0,98,0.00,CLR,,0.00,WeatherDisplay:10.37,2013-03-26 11:08:00,
2013-03-26 07:13:00,31.2,30.4,29.94,North,0,0.0,0.0,97,0.00,CLR,,0.00,WeatherDisplay:10.37,2013-03-26 11:13:00,
2013-03-26 07:18:00,31.2,29.9,29.94,North,0,0.0,0.0,95,0.00,CLR,,0.00,WeatherDisplay:10.37,2013-03-26 11:18:00,
2013-03-26 07:23:00,30.7,28.4,29.94,North,0,0.0,0.0,91,0.00,CLR,,0.00,WeatherDisplay:10.37,2013-03-26 11:23:00,
2013-03-26 07:28:00,30.3,29.0,29.95,North,0,0.0,0.0,95,0.00,CLR,,0.00,WeatherDisplay:10.37,2013-03-26 11:28:00,
2013-03-26 07:33:00,30.1,28.1,29.95,North,0,0.0,0.0,92,0.00,CLR,,0.00,WeatherDisplay:10.37,2013-03-26 11:33:00,
2013-03-26 07:38:00,29.8,27.8,29.95,North,0,0.0,0.0,92,0.00,CLR,,0.00,WeatherDisplay:10.37,2013-03-26 11:38:00,
2013-03-26 07:43:00,29.8,27.2,29.95,North,0,0.0,0.0,90,0.00,CLR,,0.00,WeatherDisplay:10.37,2013-03-26 11:43:00,
2013-03-26 07:48:00,29.7,26.9,29.96,North,0,0.0,0.0,89,0.00,CLR,,0.00,WeatherDisplay:10.37,2013-03-26 11:48:00,
2013-03-26 07:53:00,29.7,27.1,29.96,North,0,0.0,0.0,90,0.00,CLR,,0.00,WeatherDisplay:10.37,2013-03-26 11:53:00,
2013-03-26 07:58:00,29.7,26.6,29.96,North,0,0.0,0.0,88,0.00,CLR,,0.00,WeatherDisplay:10.37,2013-03-26 11:58:00,
2013-03-26 08:03:00,30.7,30.5,29.96,North,0,0.0,0.0,99,0.00,CLR,,0.00,WeatherDisplay:10.37,2013-03-26 12:03:00,
2013-03-26 08:08:00,31.6,30.8,29.97,North,0,0.0,0.0,97,0.00,CLR,,0.00,WeatherDisplay:10.37,2013-03-26 12:08:00,
2013-03-26 08:13:00,31.5,31.0,29.97,North,0,0.0,0.0,98,0.00,CLR,,0.00,WeatherDisplay:10.37,2013-03-26 12:13:00,
2013-03-26 08:18:00,32.4,32.4,29.97,North,0,0.0,0.0,100,0.00,CLR,,0.00,WeatherDisplay:10.37,2013-03-26 12:18:00,
2013-03-26 08:23:00,32.4,32.2,29.97,North,0,0.0,0.0,99,0.00,CLR,,0.00,WeatherDisplay:10.37,2013-03-26 12:23:00,
2013-03-26 08:28:00,33.6,33.6,29.97,North,0,0.0,0.0,100,0.00,,,0.00,WeatherDisplay:10.37,2013-03-26 12:28:00,
2013-03-26 08:33:00,34.9,34.9,29.97,North,0,0.0,0.0,100,0.00,,,0.00,WeatherDisplay:10.37,2013-03-26 12:33:00,
2013-03-26 08:38:00,34.9,34.1,29.97,North,0,0.0,0.0,97,0.00,CLR,,0.00,WeatherDisplay:10.37,2013-03-26 12:38:00,
2013-03-26 08:43:00,34.4,33.4,29.97,North,0,0.0,0.0,96,0.00,CLR,,0.00,WeatherDisplay:10.37,2013-03-26 12:43:00,
2013-03-26 08:48:00,34.3,32.5,29.98,North,0,0.0,0.0,93,0.00,CLR,,0.00,WeatherDisplay:10.37,2013-03-26 12:48:00,
2013-03-26 08:53:00,34.7,32.1,29.98,North,0,0.0,0.0,90,0.00,CLR,,0.00,WeatherDisplay:10.37,2013-03-26 12:53:00,
2013-03-26 08:58:00,35.3,32.7,29.98,North,0,0.0,0.0,90,0.00,CLR,,0.00,WeatherDisplay:10.37,2013-03-26 12:58:00,
2013-03-26 09:03:00,35.9,31.5,29.98,North,0,0.0,0.0,84,0.00,CLR,,0.00,WeatherDisplay:10.37,2013-03-26 13:03:00,
2013-03-26 09:08:00,36.5,31.8,29.99,North,0,0.0,0.0,83,0.00,CLR,,0.00,WeatherDisplay:10.37,2013-03-26 13:08:00,
2013-03-26 09:13:00,37.2,32.5,29.99,North,0,0.0,0.0,83,0.00,CLR,,0.00,WeatherDisplay:10.37,2013-03-26 13:13:00,
2013-03-26 09:18:00,37.7,31.5,29.99,North,0,0.0,0.0,78,0.00,CLR,,0.00,WeatherDisplay:10.37,2013-03-26 13:18:00,
2013-03-26 09:23:00,38.9,34.2,29.99,North,0,0.0,0.0,83,0.00,CLR,,0.00,WeatherDisplay:10.37,2013-03-26 13:23:00,
2013-03-26 09:28:00,39.9,31.9,29.99,North,0,0.0,0.0,73,0.00,CLR,,0.00,WeatherDisplay:10.37,2013-03-26 13:28:00,
2013-03-26 09:33:00,40.2,31.2,29.99,North,0,0.0,0.0,70,0.00,CLR,,0.00,WeatherDisplay:10.37,2013-03-26 13:33:00,
2013-03-26 09:38:00,40.3,30.6,29.99,WSW,246,4.6,4.6,68,0.00,CLR,,0.00,WeatherDisplay:10.37,2013-03-26 13:38:00,
2013-03-26 09:43:00,40.5,30.0,29.99,SW,230,4.6,4.6,66,0.00,CLR,,0.00,WeatherDisplay:10.37,2013-03-26 13:43:00,
2013-03-26 09:48:00,40.4,29.2,29.99,WSW,251,0.0,0.0,64,0.00,CLR,,0.00,WeatherDisplay:10.37,2013-03-26 13:48:00,
2013-03-26 09:53:00,40.4,28.4,29.99,WNW,301,0.0,0.0,62,0.00,CLR,,0.00,WeatherDisplay:10.37,2013-03-26 13:53:00,
2013-03-26 09:58:00,40.7,28.3,29.99,WNW,294,0.0,0.0,61,0.00,CLR,,0.00,WeatherDisplay:10.37,2013-03-26 13:58:00,
2013-03-26 10:04:00,41.1,28.7,30.00,WNW,294,0.0,0.0,61,0.00,CLR,,0.00,WeatherDisplay:10.37,2013-03-26 14:04:00,
2013-03-26 10:09:00,41.4,28.1,30.00,WNW,294,0.0,0.0,59,0.00,CLR,,0.00,WeatherDisplay:10.37,2013-03-26 14:09:00,
2013-03-26 10:14:00,41.7,28.8,30.00,WNW,288,2.3,0.0,60,0.00,CLR,,0.00,WeatherDisplay:10.37,2013-03-26 14:14:00,
2013-03-26 10:19:00,41.9,28.6,30.00,West,263,3.4,3.4,59,0.00,CLR,,0.00,WeatherDisplay:10.37,2013-03-26 14:19:00,
2013-03-26 10:24:00,42.1,29.6,30.00,NW,313,4.6,4.6,61,0.00,CLR,,0.00,WeatherDisplay:10.37,2013-03-26 14:24:00,
2013-03-26 10:29:00,42.6,28.8,30.00,West,264,7.2,7.2,58,0.00,CLR,,0.00,WeatherDisplay:10.37,2013-03-26 14:29:00,
2013-03-26 10:34:00,42.9,28.3,30.00,NW,312,4.6,4.6,56,0.00,CLR,,0.00,WeatherDisplay:10.37,2013-03-26 14:34:00,
2013-03-26 10:39:00,43.1,27.6,30.00,NW,306,9.2,9.2,54,0.00,CLR,,0.00,WeatherDisplay:10.37,2013-03-26 14:39:00,
2013-03-26 10:44:00,43.4,26.9,30.00,West,277,9.2,9.2,52,0.00,CLR,,0.00,WeatherDisplay:10.37,2013-03-26 14:44:00,
2013-03-26 10:49:00,43.7,27.7,30.00,NNW,344,10.4,10.4,53,0.00,CLR,,0.00,WeatherDisplay:10.37,2013-03-26 14:49:00,
2013-03-26 10:54:00,44.0,27.5,30.01,West,274,9.2,9.2,52,0.00,CLR,,0.00,WeatherDisplay:10.37,2013-03-26 14:54:00,
2013-03-26 10:59:00,44.3,27.8,30.01,West,278,10.4,10.4,52,0.00,CLR,,0.00,WeatherDisplay:10.37,2013-03-26 14:59:00,
2013-03-26 11:04:00,44.5,27.5,30.01,WNW,284,11.5,11.5,51,0.00,CLR,,0.00,WeatherDisplay:10.37,2013-03-26 15:04:00,
2013-03-26 11:09:00,44.6,27.6,30.01,West,267,8.1,8.1,51,0.00,CLR,,0.00,WeatherDisplay:10.37,2013-03-26 15:09:00,
2013-03-26 11:14:00,44.7,27.2,30.01,NW,306,11.0,11.0,50,0.00,CLR,,0.00,WeatherDisplay:10.37,2013-03-26 15:14:00,
2013-03-26 11:19:00,45.3,28.2,30.02,WNW,296,15.0,15.0,51,0.00,CLR,,0.00,WeatherDisplay:10.37,2013-03-26 15:19:00,
2013-03-26 11:24:00,45.6,27.5,30.02,WNW,291,10.4,10.4,49,0.00,CLR,,0.00,WeatherDisplay:10.37,2013-03-26 15:24:00,
2013-03-26 11:29:00,45.5,27.9,30.02,North,360,8.1,8.1,50,0.00,CLR,,0.00,WeatherDisplay:10.37,2013-03-26 15:29:00,
2013-03-26 11:34:00,45.8,29.2,30.02,WSW,258,12.7,12.7,52,0.00,CLR,,0.00,WeatherDisplay:10.37,2013-03-26 15:34:00,
2013-03-26 11:39:00,46.4,29.2,30.02,WNW,288,9.2,9.2,51,0.00,CLR,,0.00,WeatherDisplay:10.37,2013-03-26 15:39:00,
2013-03-26 11:44:00,47.0,29.3,30.02,WNW,294,9.2,9.2,50,0.00,CLR,,0.00,WeatherDisplay:10.37,2013-03-26 15:44:00,
2013-03-26 11:49:00,47.3,28.6,30.02,North,354,10.4,10.4,48,0.00,CLR,,0.00,WeatherDisplay:10.37,2013-03-26 15:49:00,
2013-03-26 11:54:00,47.4,28.2,30.02,SSW,209,9.2,9.2,47,0.00,CLR,,0.00,WeatherDisplay:10.37,2013-03-26 15:54:00,
2013-03-26 11:59:00,47.5,27.7,30.02,WNW,287,6.9,6.9,46,0.00,CLR,,0.00,WeatherDisplay:10.37,2013-03-26 15:59:00,
2013-03-26 12:04:00,47.4,27.6,30.02,NW,323,8.1,8.1,46,0.00,CLR,,0.00,WeatherDisplay:10.37,2013-03-26 16:04:00,
2013-03-26 12:09:00,47.1,28.9,30.02,West,281,8.1,8.1,49,0.00,CLR,,0.00,WeatherDisplay:10.37,2013-03-26 16:09:00,
2013-03-26 12:14:00,47.5,28.8,30.02,West,270,11.5,11.5,48,0.00,CLR,,0.00,WeatherDisplay:10.37,2013-03-26 16:14:00,
2013-03-26 12:19:00,47.5,28.3,30.02,NW,311,9.2,9.2,47,0.00,CLR,,0.00,WeatherDisplay:10.37,2013-03-26 16:19:00,
2013-03-26 12:24:00,47.3,28.1,30.03,WNW,294,7.6,7.6,47,0.00,CLR,,0.00,WeatherDisplay:10.37,2013-03-26 16:24:00,
2013-03-26 12:29:00,47.1,27.4,30.03,West,264,7.4,7.4,46,0.00,CLR,,0.00,WeatherDisplay:10.37,2013-03-26 16:29:00,
2013-03-26 12:34:00,47.4,29.7,30.03,West,260,11.5,11.5,50,0.00,CLR,,0.00,WeatherDisplay:10.37,2013-03-26 16:34:00,
2013-03-26 12:39:00,47.9,28.6,30.03,North,4,11.5,11.5,47,0.00,CLR,,0.00,WeatherDisplay:10.37,2013-03-26 16:39:00,
2013-03-26 12:44:00,48.0,28.7,30.03,North,360,5.5,5.5,47,0.00,CLR,,0.00,WeatherDisplay:10.37,2013-03-26 16:44:00,
2013-03-26 12:49:00,48.2,27.8,30.03,NNW,335,9.2,9.2,45,0.00,CLR,,0.00,WeatherDisplay:10.37,2013-03-26 16:49:00,
2013-03-26 12:54:00,47.9,27.6,30.03,NNE,20,5.8,5.8,45,0.00,CLR,,0.00,WeatherDisplay:10.37,2013-03-26 16:54:00,
2013-03-26 12:59:00,47.9,27.6,30.03,WSW,253,11.5,11.5,45,0.00,CLR,,0.00,WeatherDisplay:10.37,2013-03-26 16:59:00,
2013-03-26 13:04:00,48.2,28.9,30.03,NNW,342,9.2,9.2,47,0.00,CLR,,0.00,WeatherDisplay:10.37,2013-03-26 17:04:00,
2013-03-26 13:09:00,48.6,28.7,30.03,WNW,287,0.0,0.0,46,0.00,CLR,,0.00,WeatherDisplay:10.37,2013-03-26 17:09:00,
2013-03-26 13:14:00,49.1,28.7,30.03,West,274,4.6,4.6,45,0.00,CLR,,0.00,WeatherDisplay:10.37,2013-03-26 17:14:00,
2013-03-26 13:19:00,49.1,28.7,30.03,NW,325,10.4,10.4,45,0.00,CLR,,0.00,WeatherDisplay:10.37,2013-03-26 17:19:00,
2013-03-26 13:24:00,49.3,28.3,30.03,West,261,8.1,8.1,44,0.00,CLR,,0.00,WeatherDisplay:10.37,2013-03-26 17:24:00,
2013-03-26 13:29:00,49.3,28.8,30.03,WNW,302,9.2,9.2,45,0.00,CLR,,0.00,WeatherDisplay:10.37,2013-03-26 17:29:00,
2013-03-26 13:34:00,49.5,28.5,30.03,NW,312,6.9,6.9,44,0.00,CLR,,0.00,WeatherDisplay:10.37,2013-03-26 17:34:00,
2013-03-26 13:39:00,49.1,28.7,30.03,NW,311,9.2,9.2,45,0.00,CLR,,0.00,WeatherDisplay:10.37,2013-03-26 17:39:00,
2013-03-26 13:44:00,50.0,30.0,30.03,West,275,9.2,9.2,46,0.00,CLR,,0.00,WeatherDisplay:10.37,2013-03-26 17:44:00,
2013-03-26 13:49:00,51.5,29.7,30.03,West,271,9.2,9.2,43,0.00,CLR,,0.00,WeatherDisplay:10.37,2013-03-26 17:49:00,
2013-03-26 13:54:00,52.0,28.4,30.03,NW,326,9.2,9.2,40,0.00,CLR,,0.00,WeatherDisplay:10.37,2013-03-26 17:54:00,
2013-03-26 13:59:00,52.3,29.3,30.03,WNW,298,9.2,9.2,41,0.00,CLR,,0.00,WeatherDisplay:10.37,2013-03-26 17:59:00,
2013-03-26 14:04:00,52.8,30.3,30.03,WSW,239,8.1,8.1,42,0.00,CLR,,0.00,WeatherDisplay:10.37,2013-03-26 18:04:00,
2013-03-26 14:09:00,53.3,31.4,30.03,WNW,292,10.4,10.4,43,0.00,CLR,,0.00,WeatherDisplay:10.37,2013-03-26 18:09:00,
2013-03-26 14:14:00,52.5,28.8,30.03,WNW,296,6.9,6.9,40,0.00,CLR,,0.00,WeatherDisplay:10.37,2013-03-26 18:14:00,
2013-03-26 14:19:00,52.2,30.9,30.03,WSW,254,10.4,10.4,44,0.00,CLR,,0.00,WeatherDisplay:10.37,2013-03-26 18:19:00,
2013-03-26 14:24:00,52.2,28.0,30.03,North,4,10.4,10.4,39,0.00,CLR,,0.00,WeatherDisplay:10.37,2013-03-26 18:24:00,
2013-03-26 14:29:00,52.0,27.8,30.03,West,263,11.5,11.5,39,0.00,CLR,,0.00,WeatherDisplay:10.37,2013-03-26 18:29:00,
2013-03-26 14:34:00,52.3,28.7,30.03,West,274,6.9,6.9,40,0.00,CLR,,0.00,WeatherDisplay:10.37,2013-03-26 18:34:00,
2013-03-26 14:39:00,53.0,29.3,30.03,NW,322,12.7,12.7,40,0.00,CLR,,0.00,WeatherDisplay:10.37,2013-03-26 18:39:00,
2013-03-26 14:44:00,53.0,28.7,30.03,West,265,11.5,11.5,39,0.00,CLR,,0.00,WeatherDisplay:10.37,2013-03-26 18:44:00,
2013-03-26 14:49:00,52.7,29.6,30.03,WSW,258,6.3,6.3,41,0.00,CLR,,0.00,WeatherDisplay:10.37,2013-03-26 18:49:00,
2013-03-26 14:54:00,52.8,29.7,30.03,WNW,296,10.4,10.4,41,0.00,CLR,,0.00,WeatherDisplay:10.37,2013-03-26 18:54:00,
2013-03-26 14:59:00,51.9,28.9,30.03,NE,37,10.4,10.4,41,0.00,CLR,,0.00,WeatherDisplay:10.37,2013-03-26 18:59:00,
2013-03-26 15:04:00,50.7,28.4,30.03,NW,322,11.5,11.5,42,0.00,CLR,,0.00,WeatherDisplay:10.37,2013-03-26 19:04:00,
2013-03-26 15:09:00,49.6,26.8,30.04,SW,215,9.2,9.2,41,0.00,CLR,,0.00,WeatherDisplay:10.37,2013-03-26 19:09:00,
2013-03-26 15:14:00,49.2,28.2,30.03,NW,322,6.9,6.9,44,0.00,CLR,,0.00,WeatherDisplay:10.37,2013-03-26 19:14:00,
2013-03-26 15:19:00,49.5,28.5,30.03,West,261,6.9,6.9,44,0.00,CLR,,0.00,WeatherDisplay:10.37,2013-03-26 19:19:00,
2013-03-26 15:24:00,51.1,29.9,30.03,WSW,256,8.1,8.1,44,0.00,CLR,,0.00,WeatherDisplay:10.37,2013-03-26 19:24:00,
2013-03-26 15:29:00,52.9,31.0,30.03,WNW,282,9.2,9.2,43,0.00,CLR,,0.00,WeatherDisplay:10.37,2013-03-26 19:29:00,
2013-03-26 15:34:00,52.9,29.2,30.03,West,277,8.1,8.1,40,0.00,CLR,,0.00,WeatherDisplay:10.37,2013-03-26 19:34:00,
2013-03-26 15:39:00,52.5,30.6,30.04,West,278,9.2,9.2,43,0.00,CLR,,0.00,WeatherDisplay:10.37,2013-03-26 19:39:00,
2013-03-26 15:44:00,52.7,31.9,30.04,NNW,340,9.2,9.2,45,0.00,CLR,,0.00,WeatherDisplay:10.37,2013-03-26 19:44:00,
2013-03-26 15:49:00,52.1,28.5,30.04,WSW,244,5.8,5.8,40,0.00,CLR,,0.00,WeatherDisplay:10.37,2013-03-26 19:49:00,
2013-03-26 15:54:00,52.9,31.0,30.03,West,271,4.1,4.1,43,0.00,CLR,,0.00,WeatherDisplay:10.37,2013-03-26 19:54:00,
2013-03-26 15:59:00,52.5,28.2,30.03,NNW,336,9.6,9.6,39,0.00,CLR,,0.00,WeatherDisplay:10.37,2013-03-26 19:59:00,
2013-03-26 16:05:00,51.4,27.9,30.03,WNW,291,9.2,9.2,40,0.00,CLR,,0.00,WeatherDisplay:10.37,2013-03-26 20:05:00,
2013-03-26 16:10:00,50.6,27.1,30.03,North,360,6.9,6.9,40,0.00,CLR,,0.00,WeatherDisplay:10.37,2013-03-26 20:10:00,
2013-03-26 16:15:00,50.9,27.4,30.04,North,350,9.2,9.2,40,0.00,CLR,,0.00,WeatherDisplay:10.37,2013-03-26 20:15:00,
2013-03-26 16:20:00,50.8,27.3,30.04,WSW,253,2.3,2.3,40,0.00,CLR,,0.00,WeatherDisplay:10.37,2013-03-26 20:20:00,
2013-03-26 16:25:00,51.6,29.8,30.04,WSW,257,6.9,6.9,43,0.00,CLR,,0.00,WeatherDisplay:10.37,2013-03-26 20:25:00,
2013-03-26 16:30:00,52.4,28.8,30.03,WNW,295,6.9,6.9,40,0.00,CLR,,0.00,WeatherDisplay:10.37,2013-03-26 20:30:00,
2013-03-26 16:35:00,52.8,29.1,30.04,West,280,4.6,5.3,40,0.00,CLR,,0.00,WeatherDisplay:10.37,2013-03-26 20:35:00,
2013-03-26 16:40:00,53.0,29.3,30.04,WNW,301,10.4,10.4,40,0.00,CLR,,0.00,WeatherDisplay:10.37,2013-03-26 20:40:00,
2013-03-26 16:45:00,52.8,29.7,30.04,NNW,333,6.9,6.9,41,0.00,CLR,,0.00,WeatherDisplay:10.37,2013-03-26 20:45:00,
2013-03-26 16:50:00,52.2,28.0,30.04,WNW,295,6.9,6.9,39,0.00,CLR,,0.00,WeatherDisplay:10.37,2013-03-26 20:50:00,
2013-03-26 16:55:00,52.0,27.8,30.05,NNW,336,11.5,11.5,39,0.00,CLR,,0.00,WeatherDisplay:10.37,2013-03-26 20:55:00,
2013-03-26 17:00:00,51.4,27.2,30.05,WNW,299,4.5,4.5,39,0.00,CLR,,0.00,WeatherDisplay:10.37,2013-03-26 21:00:00,
2013-03-26 17:05:00,51.0,27.5,30.05,WNW,301,5.8,5.8,40,0.00,CLR,,0.00,WeatherDisplay:10.37,2013-03-26 21:05:00,
2013-03-26 17:10:00,51.2,28.9,30.05,NW,305,6.9,6.9,42,0.00,CLR,,0.00,WeatherDisplay:10.37,2013-03-26 21:10:00,
2013-03-26 17:15:00,51.2,27.7,30.05,North,360,7.0,7.0,40,0.00,CLR,,0.00,WeatherDisplay:10.37,2013-03-26 21:15:00,
2013-03-26 17:20:00,51.0,27.5,30.06,NE,42,5.8,5.8,40,0.00,CLR,,0.00,WeatherDisplay:10.37,2013-03-26 21:20:00,
2013-03-26 17:25:00,50.6,27.7,30.06,NW,318,4.6,4.6,41,0.00,CLR,,0.00,WeatherDisplay:10.37,2013-03-26 21:25:00,
2013-03-26 17:30:00,50.6,27.7,30.06,WNW,299,9.2,9.2,41,0.00,CLR,,0.00,WeatherDisplay:10.37,2013-03-26 21:30:00,
2013-03-26 17:35:00,50.4,28.1,30.06,ENE,69,8.1,8.1,42,0.00,CLR,,0.00,WeatherDisplay:10.37,2013-03-26 21:35:00,
2013-03-26 17:40:00,50.2,28.0,30.06,NW,304,5.8,5.8,42,0.00,CLR,,0.00,WeatherDisplay:10.37,2013-03-26 21:40:00,
2013-03-26 17:45:00,49.9,27.7,30.06,NNW,328,5.8,5.8,42,0.00,CLR,,0.00,WeatherDisplay:10.37,2013-03-26 21:45:00,
2013-03-26 17:50:00,49.8,28.2,30.06,NW,304,9.2,9.2,43,0.00,CLR,,0.00,WeatherDisplay:10.37,2013-03-26 21:50:00,
2013-03-26 17:55:00,50.0,28.9,30.07,NE,34,6.9,6.9,44,0.00,CLR,,0.00,WeatherDisplay:10.37,2013-03-26 21:55:00,
2013-03-26 18:00:00,49.6,27.4,30.07,North,10,4.6,4.6,42,0.00,CLR,,0.00,WeatherDisplay:10.37,2013-03-26 22:00:00,
2013-03-26 18:05:00,49.2,27.6,30.07,NNE,18,8.1,8.1,43,0.00,CLR,,0.00,WeatherDisplay:10.37,2013-03-26 22:05:00,
2013-03-26 18:10:00,49.3,28.3,30.07,WNW,284,4.6,4.6,44,0.00,CLR,,0.00,WeatherDisplay:10.37,2013-03-26 22:10:00,
2013-03-26 18:15:00,48.7,27.7,30.08,WNW,284,6.9,6.9,44,0.00,CLR,,0.00,WeatherDisplay:10.37,2013-03-26 22:15:00,
2013-03-26 18:20:00,48.4,28.5,30.08,North,353,6.9,6.9,46,0.00,CLR,,0.00,WeatherDisplay:10.37,2013-03-26 22:20:00,
2013-03-26 18:25:00,48.3,28.5,30.08,North,350,2.3,2.3,46,0.00,CLR,,0.00,WeatherDisplay:10.37,2013-03-26 22:25:00,
2013-03-26 18:30:00,48.1,27.7,30.08,WNW,292,6.9,6.9,45,0.00,CLR,,0.00,WeatherDisplay:10.37,2013-03-26 22:30:00,
2013-03-26 18:35:00,47.5,27.7,30.08,West,260,2.3,2.3,46,0.00,CLR,,0.00,WeatherDisplay:10.37,2013-03-26 22:35:00,
2013-03-26 18:40:00,47.0,27.3,30.09,WNW,299,9.7,9.7,46,0.00,CLR,,0.00,WeatherDisplay:10.37,2013-03-26 22:40:00,
2013-03-26 18:45:00,46.7,27.0,30.09,WNW,285,6.9,6.9,46,0.00,CLR,,0.00,WeatherDisplay:10.37,2013-03-26 22:45:00,
2013-03-26 18:50:00,46.1,25.9,30.09,WNW,292,0.0,0.0,45,0.00,CLR,,0.00,WeatherDisplay:10.37,2013-03-26 22:50:00,
2013-03-26 18:55:00,45.7,26.6,30.09,NNW,336,6.9,6.9,47,0.00,CLR,,0.00,WeatherDisplay:10.37,2013-03-26 22:55:00,
2013-03-26 19:00:00,45.4,26.8,30.10,NW,311,8.1,8.1,48,0.00,CLR,,0.00,WeatherDisplay:10.37,2013-03-26 23:00:00,
2013-03-26 19:05:00,45.4,26.8,30.10,NW,313,11.0,11.0,48,0.00,CLR,,0.00,WeatherDisplay:10.37,2013-03-26 23:05:00,
2013-03-26 19:10:00,45.3,26.7,30.10,SSE,158,1.2,1.2,48,0.00,CLR,,0.00,WeatherDisplay:10.37,2013-03-26 23:10:00,
2013-03-26 19:15:00,45.3,26.7,30.11,NE,45,1.2,0.0,48,0.00,CLR,,0.00,WeatherDisplay:10.37,2013-03-26 23:15:00,
2013-03-26 19:20:00,45.1,27.1,30.11,NW,308,2.9,2.9,49,0.00,CLR,,0.00,WeatherDisplay:10.37,2013-03-26 23:20:00,
2013-03-26 19:25:00,45.1,28.0,30.11,WNW,299,7.7,7.7,51,0.00,CLR,,0.00,WeatherDisplay:10.37,2013-03-26 23:25:00,
2013-03-26 19:30:00,45.1,27.6,30.11,WNW,301,6.9,6.9,50,0.00,CLR,,0.00,WeatherDisplay:10.37,2013-03-26 23:30:00,
2013-03-26 19:35:00,44.6,27.1,30.11,NW,311,8.1,8.1,50,0.00,CLR,,0.00,WeatherDisplay:10.37,2013-03-26 23:35:00,
2013-03-26 19:40:00,44.2,27.2,30.12,WNW,295,11.5,11.5,51,0.00,CLR,,0.00,WeatherDisplay:10.37,2013-03-26 23:40:00,
2013-03-26 19:45:00,43.9,27.9,30.12,NNW,344,4.6,4.6,53,0.00,CLR,,0.00,WeatherDisplay:10.37,2013-03-26 23:45:00,
2013-03-26 19:50:00,43.7,27.2,30.12,NW,315,5.8,5.8,52,0.00,CLR,,0.00,WeatherDisplay:10.37,2013-03-26 23:50:00,
2013-03-26 19:55:00,43.5,27.5,30.12,NW,322,0.0,0.0,53,0.00,CLR,,0.00,WeatherDisplay:10.37,2013-03-26 23:55:00,
2013-03-26 20:00:00,43.2,27.7,30.13,NW,320,6.9,6.9,54,0.00,CLR,,0.00,WeatherDisplay:10.37,2013-03-27 00:00:00,
2013-03-26 20:05:00,42.9,27.4,30.13,NW,320,4.6,4.6,54,0.00,CLR,,0.00,WeatherDisplay:10.37,2013-03-27 00:05:00,
2013-03-26 20:10:00,42.7,27.2,30.13,NW,304,8.1,8.1,54,0.00,CLR,,0.00,WeatherDisplay:10.37,2013-03-27 00:10:00,
2013-03-26 20:16:00,42.5,27.0,30.14,NW,323,3.5,3.5,54,0.00,CLR,,0.00,WeatherDisplay:10.37,2013-03-27 00:16:00,
2013-03-26 20:21:00,42.7,28.5,30.14,NW,312,3.5,3.5,57,0.00,CLR,,0.00,WeatherDisplay:10.37,2013-03-27 00:21:00,
2013-03-26 20:26:00,42.8,28.2,30.14,NNW,346,2.7,2.7,56,0.00,CLR,,0.00,WeatherDisplay:10.37,2013-03-27 00:26:00,
2013-03-26 20:31:00,42.8,27.3,30.14,WNW,296,5.3,5.3,54,0.00,CLR,,0.00,WeatherDisplay:10.37,2013-03-27 00:31:00,
2013-03-26 20:36:00,42.5,27.0,30.14,North,3,3.5,3.5,54,0.00,CLR,,0.00,WeatherDisplay:10.37,2013-03-27 00:36:00,
2013-03-26 20:41:00,42.2,27.2,30.14,WNW,301,4.6,4.6,55,0.00,CLR,,0.00,WeatherDisplay:10.37,2013-03-27 00:41:00,
2013-03-26 20:46:00,42.1,27.1,30.15,NW,319,3.0,3.0,55,0.00,CLR,,0.00,WeatherDisplay:10.37,2013-03-27 00:46:00,
2013-03-26 20:51:00,42.1,27.1,30.15,West,277,3.5,3.5,55,0.00,CLR,,0.00,WeatherDisplay:10.37,2013-03-27 00:51:00,
2013-03-26 20:56:00,42.2,28.0,30.16,NW,304,4.6,4.6,57,0.00,CLR,,0.00,WeatherDisplay:10.37,2013-03-27 00:56:00,
2013-03-26 21:01:00,42.4,28.2,30.16,West,275,5.8,5.8,57,0.00,CLR,,0.00,WeatherDisplay:10.37,2013-03-27 01:01:00,
2013-03-26 21:06:00,42.7,28.5,30.16,NW,319,5.8,5.8,57,0.00,CLR,,0.00,WeatherDisplay:10.37,2013-03-27 01:06:00,
2013-03-26 21:11:00,42.3,27.7,30.16,WNW,302,6.9,6.9,56,0.00,CLR,,0.00,WeatherDisplay:10.37,2013-03-27 01:11:00,
2013-03-26 21:16:00,42.3,27.7,30.16,NW,309,0.0,0.0,56,0.00,CLR,,0.00,WeatherDisplay:10.37,2013-03-27 01:16:00,
2013-03-26 21:21:00,42.0,27.4,30.16,NW,322,6.9,6.9,56,0.00,CLR,,0.00,WeatherDisplay:10.37,2013-03-27 01:21:00,
2013-03-26 21:26:00,41.7,27.1,30.17,NW,322,8.4,8.4,56,0.00,CLR,,0.00,WeatherDisplay:10.37,2013-03-27 01:26:00,
2013-03-26 21:31:00,41.7,27.1,30.17,West,263,4.5,4.5,56,0.00,CLR,,0.00,WeatherDisplay:10.37,2013-03-27 01:31:00,
2013-03-26 21:37:00,41.6,27.1,30.17,WSW,253,3.5,3.5,56,0.00,CLR,,0.00,WeatherDisplay:10.37,2013-03-27 01:37:00,
2013-03-26 21:42:00,41.6,27.1,30.17,WSW,253,6.9,6.9,56,0.00,CLR,,0.00,WeatherDisplay:10.37,2013-03-27 01:42:00,
2013-03-26 21:47:00,41.3,26.8,30.18,West,281,4.6,4.6,56,0.00,CLR,,0.00,WeatherDisplay:10.37,2013-03-27 01:47:00,
2013-03-26 21:52:00,41.1,27.0,30.18,West,264,5.8,5.8,57,0.00,CLR,,0.00,WeatherDisplay:10.37,2013-03-27 01:52:00,
2013-03-26 21:57:00,40.8,27.2,30.18,West,271,4.6,4.6,58,0.00,CLR,,0.00,WeatherDisplay:10.37,2013-03-27 01:57:00,
2013-03-26 22:02:00,40.7,27.1,30.18,West,271,0.0,0.0,58,0.00,CLR,,0.00,WeatherDisplay:10.37,2013-03-27 02:02:00,
2013-03-26 22:07:00,40.6,27.4,30.18,NW,311,4.6,4.6,59,0.00,CLR,,0.00,WeatherDisplay:10.37,2013-03-27 02:07:00,
2013-03-26 22:12:00,40.7,28.3,30.18,NW,325,4.6,4.6,61,0.00,CLR,,0.00,WeatherDisplay:10.37,2013-03-27 02:12:00,
2013-03-26 22:17:00,40.8,27.6,30.18,North,350,1.0,1.0,59,0.00,CLR,,0.00,WeatherDisplay:10.37,2013-03-27 02:17:00,
2013-03-26 22:22:00,40.6,27.8,30.18,West,264,2.3,2.3,60,0.00,CLR,,0.00,WeatherDisplay:10.37,2013-03-27 02:22:00,
2013-03-26 22:27:00,40.5,27.7,30.19,WNW,295,5.8,5.8,60,0.00,CLR,,0.00,WeatherDisplay:10.37,2013-03-27 02:27:00,
2013-03-26 22:32:00,40.3,27.5,30.19,West,263,3.5,3.5,60,0.00,CLR,,0.00,WeatherDisplay:10.37,2013-03-27 02:32:00,
2013-03-26 22:37:00,40.2,27.4,30.19,WSW,244,5.8,5.8,60,0.00,CLR,,0.00,WeatherDisplay:10.37,2013-03-27 02:37:00,
2013-03-26 22:42:00,39.9,27.1,30.19,NNW,329,3.6,3.6,60,0.00,CLR,,0.00,WeatherDisplay:10.37,2013-03-27 02:42:00,
2013-03-26 22:47:00,39.6,26.8,30.19,West,270,4.6,4.6,60,0.00,CLR,,0.00,WeatherDisplay:10.37,2013-03-27 02:47:00,
2013-03-26 22:52:00,39.6,27.2,30.19,WNW,299,6.9,6.9,61,0.00,CLR,,0.00,WeatherDisplay:10.37,2013-03-27 02:52:00,
2013-03-26 22:57:00,39.4,27.1,30.19,NNW,328,2.0,0.0,61,0.00,CLR,,0.00,WeatherDisplay:10.37,2013-03-27 02:57:00,
2013-03-26 23:03:00,39.5,27.2,30.19,West,278,0.0,0.0,61,0.00,CLR,,0.00,WeatherDisplay:10.37,2013-03-27 03:03:00,
2013-03-26 23:08:00,39.4,27.1,30.19,West,265,0.0,0.0,61,0.00,CLR,,0.00,WeatherDisplay:10.37,2013-03-27 03:08:00,
2013-03-26 23:13:00,39.4,27.5,30.19,West,265,0.0,0.0,62,0.00,CLR,,0.00,WeatherDisplay:10.37,2013-03-27 03:13:00,
2013-03-26 23:18:00,39.6,29.5,30.19,West,265,0.0,0.0,67,0.00,CLR,,0.00,WeatherDisplay:10.37,2013-03-27 03:18:00,
2013-03-26 23:23:00,40.3,31.3,30.19,WNW,299,0.0,0.0,70,0.00,CLR,,0.00,WeatherDisplay:10.37,2013-03-27 03:23:00,
2013-03-26 23:28:00,40.5,29.3,30.19,WNW,302,0.0,0.0,64,0.00,CLR,,0.00,WeatherDisplay:10.37,2013-03-27 03:28:00,
2013-03-26 23:33:00,40.0,28.4,30.20,WNW,302,0.0,0.0,63,0.00,CLR,,0.00,WeatherDisplay:10.37,2013-03-27 03:33:00,
2013-03-26 23:38:00,39.5,27.9,30.20,NNW,329,2.3,0.0,63,0.00,CLR,,0.00,WeatherDisplay:10.37,2013-03-27 03:38:00,
2013-03-26 23:43:00,39.0,27.8,30.20,NNW,329,0.0,0.0,64,0.00,CLR,,0.00,WeatherDisplay:10.37,2013-03-27 03:43:00,
2013-03-26 23:48:00,38.7,27.6,30.20,WNW,302,3.5,3.5,64,0.00,CLR,,0.00,WeatherDisplay:10.37,2013-03-27 03:48:00,
2013-03-26 23:53:00,38.4,27.7,30.20,North,360,4.6,4.6,65,0.00,CLR,,0.00,WeatherDisplay:10.37,2013-03-27 03:53:00,
2013-03-26 23:58:00,38.2,27.8,30.20,NW,316,2.3,2.3,66,0.00,CLR,,0.00,WeatherDisplay:10.37,2013-03-27 03:58:00,